Location: Chakepay
(13.3931°S, 72.1925°W)
Time: 17:48:45
(UTC+00:00)

CZ-2C R/B - Pass Details

Date: 15 November 2019
Orbit: 784 x 871 km, 98.3° (Epoch: 11 December)

Event Time Altitude Azimuth Distance (km) Brightness Sun altitude
Exits shadow 01:06:28 49° 180° (S) 1,008 3.2 -30.0°
Drops below altitude 10° 01:10:16 10° 189° (S) 2,370 5.5 -30.7°
Sets 01:12:37 0° 190° (S) 3,313 6.3 -31.2°
